EDT,Max TemperatureF,Mean TemperatureF,Min TemperatureF,Max Dew PointF,MeanDew PointF,Min DewpointF,Max Humidity, Mean Humidity, Min Humidity, Max Sea Level PressureIn, Mean Sea Level PressureIn, Min Sea Level PressureIn, Max VisibilityMiles, Mean VisibilityMiles, Min VisibilityMiles, Max Wind SpeedMPH, Mean Wind SpeedMPH, Max Gust SpeedMPH,PrecipitationIn, CloudCover, Events, WindDirDegrees
2013-9-1,69,64,59,67,63,58,97,93,86,29.86,29.77,29.68,10,8,3,16,8,23,0.06,5,Rain,164
2013-9-2,58,56,53,57,51,49,94,85,77,29.89,29.83,29.75,10,10,4,17,13,26,0.00,8,,300
2013-9-3,67,60,53,60,53,50,90,77,58,29.98,29.93,29.89,10,10,10,17,11,28,0.00,0,,272
2013-9-4,66,58,49,61,50,39,88,69,44,30.15,30.02,29.88,10,10,10,15,11,26,0.12,2,,324
2013-9-5,61,53,45,50,43,35,90,67,46,30.32,30.25,30.15,10,10,10,13,7,16,0.00,0,,298
2013-9-6,68,62,55,63,54,45,97,76,64,30.22,30.11,29.95,10,10,7,15,8,23,0.05,2,Rain,219
2013-9-7,73,66,60,69,65,57,99,94,84,30.04,29.91,29.86,10,7,2,14,5,22,0.42,7,Rain,288
2013-9-8,62,58,54,57,51,48,96,78,61,30.19,30.12,30.05,10,10,10,12,7,20,0.00,0,,76
2013-9-9,67,62,56,65,56,51,96,84,73,30.05,29.92,29.73,10,10,10,13,8,22,0.00,5,Rain,141
2013-9-10,77,70,64,70,66,63,98,87,70,29.93,29.81,29.73,10,9,4,17,9,26,0.23,5,Rain,231
2013-9-11,71,68,64,67,65,63,98,94,83,29.96,29.92,29.88,10,10,2,15,8,23,0.46,4,Rain,236
2013-9-12,65,58,50,65,53,44,99,83,65,30.06,29.95,29.87,10,10,7,17,9,29,0.01,7,,317
2013-9-13,56,50,43,43,39,35,87,68,48,30.19,30.14,30.06,10,10,10,17,11,23,0.00,3,,6
2013-9-14,63,52,42,52,48,41,98,80,64,30.13,30.07,29.98,10,10,10,17,6,26,0.00,1,,236
2013-9-15,61,54,47,58,54,43,97,88,76,30.21,30.03,29.95,10,10,3,15,9,22,0.19,6,Rain,273
2013-9-16,54,48,41,42,37,33,83,69,47,30.43,30.37,30.23,10,10,7,16,9,20,0.00,2,,65
2013-9-17,57,50,42,53,44,35,97,76,60,30.40,30.33,30.17,10,9,5,10,7,16,0.00,0,,144
2013-9-18,66,59,52,58,52,46,93,79,66,30.17,30.05,29.94,10,10,5,12,7,,0.01,4,Rain,152
2013-9-19,72,66,61,67,60,56,95,81,69,29.95,29.88,29.76,10,10,5,12,6,18,0.00,4,,141
2013-9-20,70,64,56,67,64,54,100,96,86,29.76,29.68,29.64,10,7,1,20,10,28,0.12,7,Rain,222
2013-9-21,56,50,44,55,46,40,97,83,63,29.88,29.77,29.70,10,10,7,16,9,24,0.02,6,Rain,311
2013-9-22,52,46,39,42,39,35,95,78,60,30.10,30.03,29.89,10,10,5,12,6,20,0.00,4,,342
2013-9-23,56,48,40,47,43,37,99,81,52,30.21,30.16,30.11,10,10,4,10,5,,0.00,0,,74
2013-9-24,58,52,47,50,48,46,94,82,70,30.17,30.11,30.03,10,10,10,14,7,17,0.00,0,,132
2013-9-25,61,53,45,54,46,32,100,79,34,30.06,30.04,30.02,10,9,0,10,5,,0.00,1,Fog,105
2013-9-26,64,54,44,52,47,44,100,75,50,30.14,30.11,30.04,10,9,2,10,5,16,0.00,0,,110
2013-9-27,66,56,47,56,50,46,95,72,53,30.22,30.18,30.14,10,10,10,13,7,18,0.00,0,,132
2013-9-28,69,62,55,57,53,49,91,72,59,30.17,30.05,29.84,10,10,10,15,10,24,0.00,1,,139
2013-9-29,66,58,50,60,52,49,98,81,60,30.01,29.95,29.82,10,10,2,21,10,26,0.14,3,Rain,256
2013-9-30,66,56,47,52,48,40,99,78,40,30.01,29.94,29.85,10,10,7,9,5,,0.00,0,,172